This is the latest recevied weather packets stored in our database for station/object YF9UAG-15. If no packets are shown the sender has not sent any weather packets the latest 10 day(s).
| Time | Temp. | Humidity | Pressure | Rain* | Wind** | Luminosity | Snow |
|---|---|---|---|---|---|---|---|
| 1777901688 | 28.89° C | 100% | 1009.3 hPa | - | - | - | - |
| 1777901567 | 28.33° C | 100% | 1009.3 hPa | - | - | - | - |
| 1777901446 | 27.78° C | 100% | 1009.3 hPa | - | - | - | - |
| 1777901325 | 28.89° C | 100% | 1009.2 hPa | - | - | - | - |
| 1777901204 | 28.89° C | 100% | 1009.2 hPa | - | - | - | - |
| 1777901083 | 28.33° C | 100% | 1009.2 hPa | - | - | - | - |
| 1777900962 | 28.33° C | 100% | 1009.3 hPa | - | - | - | - |
| 1777900841 | 27.78° C | 100% | 1009.1 hPa | - | - | - | - |
| 1777900720 | 27.78° C | 100% | 1009.2 hPa | - | - | - | - |
| 1777900599 | 28.89° C | 100% | 1009.2 hPa | - | - | - | - |
| 1777900478 | 28.33° C | 100% | 1009.2 hPa | - | - | - | - |
| 1777900358 | 28.33° C | 100% | 1009.2 hPa | - | - | - | - |
| 1777900237 | 28.89° C | 100% | 1009.2 hPa | - | - | - | - |
| 1777900116 | 28.33° C | 100% | 1009.3 hPa | - | - | - | - |
| 1777899995 | 28.33° C | 100% | 1009.2 hPa | - | - | - | - |
| 1777899874 | 27.78° C | 100% | 1009.3 hPa | - | - | - | - |
| 1777899753 | 27.78° C | 100% | 1009.3 hPa | - | - | - | - |
| 1777899632 | 28.33° C | 100% | 1009.2 hPa | - | - | - | - |
| 1777899511 | 28.89° C | 100% | 1009.1 hPa | - | - | - | - |
| 1777899390 | 28.33° C | 100% | 1009.1 hPa | - | - | - | - |
| 1777899269 | 28.33° C | 100% | 1009.2 hPa | - | - | - | - |
| 1777899148 | 28.89° C | 100% | 1009.1 hPa | - | - | - | - |
| 1777899027 | 28.89° C | 100% | 1009.1 hPa | - | - | - | - |
| 1777898906 | 28.33° C | 100% | 1009.1 hPa | - | - | - | - |
| 1777898785 | 28.33° C | 100% | 1009.1 hPa | - | - | - | - |
* Rain since midnight (hover to see other rain measurements)
** Current wind speed in m/s (hover to see current wind gust speed)